Total_Precipitation_Accumulation
1.38 1.38 1.36 1.30 1.30 1.33 1.40 1.56 1.73 1.57 1.18 0.90 0.85 0.86 0.91 0.93 0.97 0.91 0.80 0.85 0.86 0.84 0.84 0.84 0.87 0.91 0.95 1.04 1.16 1.30 1.46 1.62 1.83 2.05 2.21 2.31 2.43 2.56
1.29 1.28 1.24 1.19 1.23 1.28 1.36 1.44 1.60 1.72 1.45 0.98 0.83 0.79 0.83 0.84 0.89 0.83 0.75 0.85 0.81 0.76 0.73 0.74 0.77 0.83 0.87 0.92 0.97 1.05 1.15 1.29 1.46 1.67 1.89 2.08 2.21 2.36
1.27 1.26 1.24 1.19 1.20 1.21 1.24 1.28 1.36 1.48 1.47 1.06 0.88 0.85 0.85 0.82 0.80 0.77 0.71 0.71 0.68 0.75 0.71 0.71 0.72 0.78 0.85 0.88 0.91 0.94 0.99 1.11 1.23 1.37 1.56 1.75 1.90 1.99
1.16 1.17 1.17 1.18 1.21 1.19 1.19 1.18 1.15 1.16 1.26 1.10 0.84 0.80 0.79 0.78 0.81 0.82 0.76 0.70 0.65 0.71 0.71 0.69 0.70 0.73 0.77 0.85 0.90 0.94 0.96 1.00 1.06 1.14 1.25 1.36 1.50 1.70
1.05 1.07 1.06 1.09 1.11 1.07 1.05 1.04 1.02 1.04 1.12 1.13 0.92 0.79 0.76 0.77 0.83 0.83 0.79 0.76 0.72 0.76 0.80 0.78 0.79 0.78 0.80 0.86 0.93 0.98 1.00 1.01 1.02 1.05 1.11 1.20 1.31 1.48
1.04 1.05 1.00 0.97 0.93 0.91 0.94 0.96 1.03 1.13 1.15 1.19 1.07 0.89 0.83 0.80 0.88 0.87 0.84 0.78 0.80 0.79 0.90 0.93 0.93 0.90 0.86 0.88 0.93 0.99 1.03 1.10 1.13 1.17 1.22 1.27 1.33 1.41
1.00 0.97 0.94 0.95 0.91 0.88 0.90 0.93 1.03 1.18 1.29 1.35 1.26 1.10 0.97 0.90 0.88 0.86 0.95 0.95 0.95 0.90 0.91 0.93 0.94 0.96 0.94 0.95 0.96 0.98 1.03 1.11 1.22 1.31 1.39 1.44 1.48 1.51
0.96 0.92 0.88 0.92 0.90 0.90 0.91 0.98 1.12 1.28 1.43 1.48 1.43 1.26 1.00 0.87 0.89 1.02 1.18 1.35 1.29 0.94 0.94 0.98 0.95 1.03 0.99 0.96 1.09 1.13 1.12 1.17 1.25 1.30 1.35 1.41 1.44 1.48
0.90 0.87 0.83 0.80 0.86 0.79 0.86 0.98 1.06 1.17 1.25 1.26 1.24 1.04 0.92 0.87 1.08 1.35 1.40 1.44 1.24 0.96 1.11 1.25 1.10 1.08 1.00 1.03 1.20 1.14 1.11 1.13 1.19 1.21 1.22 1.24 1.25 1.28
0.83 0.81 0.83 0.83 0.82 0.88 0.93 1.00 0.90 0.84 0.88 0.88 0.91 0.90 0.91 1.01 1.28 1.61 1.73 1.74 1.50 1.29 1.29 1.41 1.15 1.04 1.00 1.04 1.19 1.13 1.04 1.02 1.06 1.11 1.13 1.13 1.12 1.14
0.73 0.73 0.75 0.76 0.90 1.07 1.12 1.12 0.94 0.76 0.77 0.88 0.98 1.01 1.07 1.15 1.28 1.60 1.86 2.00 1.76 1.31 1.17 1.27 1.17 1.12 1.12 1.08 1.10 1.16 1.08 1.05 1.02 1.04 1.10 1.12 1.12 1.14
0.69 0.68 0.75 0.77 0.90 1.06 1.03 1.08 1.03 0.86 0.83 0.86 0.90 0.94 0.92 1.00 1.21 1.38 1.85 2.37 2.12 1.61 1.11 1.24 1.26 1.36 1.58 1.19 1.03 1.06 1.09 1.14 1.13 1.09 1.11 1.12 1.14 1.14
0.66 0.61 0.62 0.81 0.91 0.98 0.95 0.87 0.97 1.05 0.98 0.95 0.96 0.96 0.96 1.00 1.09 1.21 1.55 2.28 2.62 2.03 1.29 1.67 1.83 1.57 1.75 1.41 1.13 1.10 1.12 1.21 1.28 1.24 1.18 1.17 1.15 1.16
0.61 0.56 0.61 0.78 0.80 0.81 0.79 0.84 1.01 1.02 0.91 1.04 1.12 1.12 1.09 1.09 1.13 1.20 1.33 1.54 1.84 1.91 1.51 1.83 2.24 1.83 1.91 1.60 1.21 1.17 1.21 1.34 1.44 1.41 1.28 1.27 1.22 1.20
0.60 0.66 0.70 0.73 0.69 0.68 0.78 0.90 0.89 0.81 0.95 1.18 1.22 1.18 1.20 1.28 1.34 1.37 1.36 1.38 1.43 1.42 1.43 1.50 1.76 1.76 1.93 1.88 1.46 1.28 1.42 1.54 1.61 1.64 1.50 1.30 1.18 1.14
0.67 0.67 0.65 0.63 0.63 0.65 0.71 0.74 0.74 0.84 1.10 1.29 1.31 1.27 1.29 1.38 1.48 1.56 1.67 1.63 1.63 1.47 1.33 1.27 1.35 1.66 1.82 1.56 1.63 1.56 1.55 1.86 1.96 1.94 1.68 1.43 1.26 1.14
0.67 0.60 0.56 0.56 0.57 0.58 0.61 0.64 0.70 0.85 1.03 1.11 1.28 1.36 1.35 1.41 1.50 1.60 1.75 1.77 1.71 1.45 1.26 1.16 1.17 1.29 1.46 1.53 1.60 1.52 1.59 1.76 1.93 1.98 1.78 1.68 1.53 1.35
0.69 0.61 0.57 0.57 0.59 0.62 0.64 0.68 0.72 0.85 1.04 1.24 1.37 1.49 1.58 1.63 1.68 1.67 1.70 1.71 1.59 1.35 1.17 1.07 1.09 1.21 1.20 1.18 1.36 1.52 1.58 1.74 1.88 1.82 1.60 1.65 1.70 1.51
0.64 0.62 0.63 0.66 0.69 0.71 0.74 0.79 0.84 0.89 1.14 1.39 1.54 1.63 1.76 1.80 1.78 1.69 1.56 1.45 1.29 1.11 0.98 0.92 1.05 1.42 1.47 1.10 0.97 1.24 1.69 1.82 1.73 1.69 1.56 1.53 1.68 1.55
0.59 0.67 0.74 0.78 0.80 0.81 0.85 0.95 1.04 1.10 1.25 1.43 1.56 1.66 1.82 1.91 1.76 1.52 1.33 1.22 1.12 0.95 0.83 0.75 0.85 1.30 1.83 1.67 1.36 1.21 1.41 1.77 1.91 1.85 1.55 1.42 1.47 1.46
0.58 0.68 0.76 0.81 0.85 0.89 0.94 1.05 1.20 1.34 1.43 1.58 1.67 1.78 1.85 1.82 1.56 1.23 1.03 0.90 0.90 0.89 0.83 0.70 0.67 0.88 1.29 1.54 1.37 1.09 1.22 1.45 1.75 2.09 1.95 1.77 1.56 1.36
0.56 0.65 0.71 0.79 0.89 0.99 1.07 1.18 1.33 1.41 1.49 1.60 1.70 1.74 1.66 1.53 1.33 1.03 0.89 0.89 0.84 0.81 0.77 0.67 0.62 0.72 0.99 1.35 1.22 0.98 1.04 1.11 1.14 1.23 1.57 1.97 2.37 2.28
0.62 0.69 0.74 0.82 0.94 1.07 1.19 1.27 1.36 1.43 1.52 1.64 1.64 1.51 1.35 1.19 0.99 0.94 0.89 0.86 0.86 0.81 0.77 0.74 0.68 0.69 0.78 0.94 1.06 1.00 0.93 0.93 0.90 0.98 1.25 1.31 1.45 1.69